FW0460 Weather Reports


Display with metric or nautical units.
time (UTC)temp
F
wind
direction
speed
MPH
gust
MPH
rain 1hr
in
rain 24hr
in
rain mn
in
humidity
%
barometer
mb
20190120041535 30 17 2.0 4.0 0.00 0.00 0.00 93 1015.4
20190120040541 30 17 2.0 4.0 0.00 0.00 0.00 93 1015.4
20190120035520 30 5 1.0 2.0 0.00 0.00 0.00 93 1015.4
20190120034526 30 7 0.0 4.0 0.00 0.00 0.00 93 1015.5
20190120033532 30 17 3.0 4.0 0.00 0.00 0.00 93 1015.6
20190120032538 30 9 3.0 4.0 0.00 0.00 0.00 93 1015.7
20190120031517 30 28 1.0 7.0 0.00 0.00 0.00 93 1015.7
20190120030523 30 20 3.0 7.0 0.00 0.00 0.00 93 1015.8
20190120025529 30 14 3.0 4.0 0.00 0.00 0.00 93 1016.0
20190120024535 30 20 2.0 4.0 0.00 0.00 0.00 93 1015.9
20190120023541 30 13 2.0 4.0 0.00 0.00 0.00 93 1016.0
20190120022521 30 14 2.0 7.0 0.00 0.00 0.00 92 1016.1
20190120021526 30 7 2.0 4.0 0.00 0.00 0.00 92 1016.1
20190120020532 30 24 3.0 7.0 0.00 0.00 0.00 92 1016.1
20190120015538 30 21 3.0 7.0 0.00 0.00 0.00 92 1016.1
20190120014517 30 10 4.0 7.0 0.00 0.00 0.00 92 1016.1
20190120013523 30 26 3.0 7.0 0.00 0.00 0.00 92 1016.2
20190120012529 30 13 4.0 7.0 0.00 0.00 0.00 92 1016.3
20190120011535 30 17 3.0 7.0 0.00 0.00 0.00 92 1016.6
20190120010541 30 27 2.0 7.0 0.00 0.00 0.00 92 1016.4
20190120005521 30 11 2.0 4.0 0.00 0.00 0.00 92 1016.5
20190120004527 30 19 2.0 4.0 0.00 0.00 0.00 91 1016.6
20190120003532 30 15 3.0 7.0 0.00 0.00 0.00 91 1016.5
20190120002538 30 355 2.0 4.0 0.00 0.00 0.00 91 1016.6
20190120001517 30 9 2.0 4.0 0.00 0.00 0.00 90 1016.6
20190120000523 30 24 3.0 7.0 0.00 0.00 0.00 90 1016.6
20190119235529 30 17 2.0 4.0 0.00 0.00 0.00 90 1016.8
20190119234537 30 24 2.0 7.0 0.00 0.00 0.00 90 1016.8
20190119233541 30 22 1.0 7.0 0.00 0.00 0.00 90 1017.1
20190119232520 30 21 3.0 7.0 0.00 0.00 0.00 90 1017.1
20190119231526 30 15 3.0 7.0 0.00 0.00 0.00 90 1017.1
20190119230532 30 17 1.0 7.0 0.00 0.00 0.00 90 1017.2
20190119225539 30 25 2.0 4.0 0.00 0.00 0.00 90 1017.1
20190119224544 30 14 2.0 4.0 0.00 0.00 0.00 89 1017.4
20190119223523 30 14 1.0 4.0 0.00 0.00 0.00 89 1017.4
20190119222529 30 21 1.0 4.0 0.00 0.00 0.00 89 1017.4
20190119221535 31 43 0.0 4.0 0.00 0.00 0.00 89 1017.4
20190119220541 31 43 2.0 7.0 0.00 0.00 0.00 89 1017.4
20190119215520 31 39 1.0 7.0 0.00 0.00 0.00 88 1017.4
20190119214526 31 47 1.0 7.0 0.00 0.00 0.00 88 1017.3
20190119213532 31 35 2.0 10.0 0.00 0.00 0.00 88 1017.1
20190119212538 31 39 1.0 2.0 0.00 0.00 0.00 88 1017.2
20190119211517 31 44 1.0 4.0 0.00 0.00 0.00 87 1017.3
20190119210524 31 49 1.0 4.0 0.00 0.00 0.00 87 1017.4
20190119205529 31 34 1.0 4.0 0.00 0.00 0.00 87 1017.5
20190119204535 31 45 1.0 4.0 0.00 0.00 0.00 87 1017.7
20190119203542 31 31 2.0 4.0 0.00 0.00 0.00 86 1017.7
20190119202520 31 29 3.0 7.0 0.00 0.00 0.00 86 1017.7
20190119201526 31 21 5.0 10.0 0.00 0.00 0.00 86 1017.7
20190119200533 31 19 3.0 7.0 0.00 0.00 0.00 86 1017.8
20190119195538 31 26 2.0 7.0 0.00 0.00 0.00 86 1018.0
20190119194520 31 20 3.0 7.0 0.00 0.00 0.00 86 1017.9
20190119193524 31 23 2.0 4.0 0.00 0.00 0.00 86 1018.0
20190119192529 31 23 2.0 4.0 0.00 0.00 0.00 86 1018.0
20190119191535 31 22 2.0 4.0 0.00 0.00 0.00 86 1018.0
20190119190541 31 28 2.0 7.0 0.00 0.00 0.00 86 1018.0
20190119185520 31 36 1.0 4.0 0.00 0.00 0.00 85 1018.1
20190119184526 31 31 2.0 7.0 0.00 0.00 0.00 85 1018.1
20190119183532 31 11 2.0 7.0 0.00 0.00 0.00 85 1018.1
20190119182538 32 24 0.0 4.0 0.00 0.00 0.00 85 1018.0
20190119181517 32 359 0.0 2.0 0.00 0.00 0.00 85 1018.1
20190119180523 32 34 0.0 2.0 0.00 0.00 0.00 85 1018.1
20190119175530 32 349 2.0 7.0 0.00 0.00 0.00 84 1018.2
20190119174535 32 8 3.0 4.0 0.00 0.00 0.00 84 1018.0
20190119173541 32 18 1.0 4.0 0.00 0.00 0.00 84 1018.2
20190119172520 32 15 3.0 4.0 0.00 0.00 0.00 84 1018.1
20190119171529 32 15 2.0 4.0 0.00 0.00 0.00 84 1018.1
20190119170532 32 6 3.0 10.0 0.00 0.00 0.00 84 1018.1
20190119165538 32 12 3.0 10.0 0.00 0.00 0.00 83 1018.1
20190119164517 32 15 2.0 7.0 0.00 0.00 0.00 83 1018.0
20190119163523 32 11 3.0 7.0 0.00 0.00 0.00 83 1018.3
20190119162529 32 15 3.0 7.0 0.00 0.00 0.00 83 1018.4
20190119161535 32 19 3.0 7.0 0.00 0.00 0.00 83 1018.4
20190119160541 32 18 3.0 7.0 0.00 0.00 0.00 83 1018.4
20190119155520 33 9 3.0 7.0 0.00 0.00 0.00 83 1018.5
20190119154526 33 7 3.0 4.0 0.00 0.00 0.00 83 1018.7
20190119153532 33 9 3.0 7.0 0.00 0.00 0.00 83 1018.7
20190119152538 33 16 3.0 7.0 0.00 0.00 0.00 83 1018.6
20190119151517 33 14 2.0 4.0 0.00 0.00 0.00 82 1018.6
20190119150523 34 9 1.0 4.0 0.00 0.00 0.00 82 1018.6
20190119145529 34 15 2.0 7.0 0.00 0.00 0.00 82 1018.5
20190119144535 34 16 3.0 7.0 0.00 0.00 0.00 81 1018.4
20190119143541 34 22 2.0 7.0 0.00 0.00 0.00 81 1018.6
20190119142520 34 34 3.0 7.0 0.00 0.00 0.00 81 1018.5
20190119141526 34 27 2.0 4.0 0.00 0.00 0.00 81 1018.7
20190119140532 34 12 1.0 4.0 0.00 0.00 0.00 81 1018.7
20190119135538 35 33 3.0 10.0 0.00 0.00 0.00 80 1018.7
20190119134517 35 14 7.0 12.0 0.00 0.00 0.00 80 1018.7
20190119133523 35 31 2.0 7.0 0.00 0.00 0.00 80 1018.8
20190119132529 35 30 4.0 12.0 0.00 0.00 0.00 79 1018.7
20190119131535 35 17 5.0 7.0 0.00 0.00 0.00 79 1019.1
20190119130541 35 20 4.0 10.0 0.00 0.00 0.00 80 1019.0
20190119125520 35 20 5.0 12.0 0.00 0.00 0.00 79 1019.1
20190119124526 35 18 5.0 10.0 0.00 0.00 0.00 79 1019.1
20190119123532 35 32 2.0 10.0 0.00 0.00 0.00 79 1019.1
20190119122538 35 31 5.0 10.0 0.00 0.00 0.00 78 1019.3
20190119121517 35 35 2.0 7.0 0.00 0.00 0.00 78 1019.1
20190119120523 34 24 5.0 10.0 0.00 0.00 0.00 78 1019.1
20190119115530 34 30 5.0 14.0 0.00 0.00 0.00 78 1019.4
20190119114535 34 28 6.0 12.0 0.00 0.00 0.00 79 1019.6
20190119113541 34 40 4.0 12.0 0.00 0.00 0.00 79 1019.7
20190119112520 34 45 4.0 7.0 0.00 0.00 0.00 79 1019.8
20190119111526 34 73 3.0 10.0 0.00 0.00 0.00 79 1019.8
20190119110532 34 51 5.0 12.0 0.00 0.00 0.00 78 1019.8
20190119105538 34 32 5.0 14.0 0.00 0.00 0.00 79 1019.7
20190119104517 34 44 4.0 10.0 0.00 0.00 0.00 78 1019.7
20190119103523 33 46 4.0 12.0 0.00 0.00 0.00 80 1019.8
20190119102529 33 44 3.0 12.0 0.00 0.00 0.00 79 1019.7
20190119101535 32 29 5.0 14.0 0.00 0.00 0.00 80 1019.8
20190119100540 32 25 7.0 14.0 0.00 0.00 0.00 83 1019.8
20190119095520 32 27 6.0 12.0 0.00 0.00 0.00 84 1020.1
20190119094526 31 31 4.0 10.0 0.00 0.00 0.00 84 1020.4
20190119093532 31 28 6.0 12.0 0.00 0.00 0.00 84 1020.4
20190119092538 31 23 5.0 12.0 0.00 0.00 0.00 85 1020.4
20190119091518 31 31 6.0 14.0 0.00 0.00 0.00 85 1020.4
20190119090523 31 26 6.0 12.0 0.00 0.00 0.00 85 1020.4
20190119085529 31 27 6.0 12.0 0.00 0.00 0.00 85 1020.4
20190119084535 30 31 5.0 10.0 0.00 0.00 0.00 85 1020.5
20190119083541 30 28 2.0 10.0 0.00 0.00 0.00 86 1020.4
20190119082520 29 21 4.0 10.0 0.00 0.00 0.00 86 1020.4
20190119081526 29 14 2.0 7.0 0.00 0.00 0.00 87 1020.4
20190119080532 29 14 1.0 4.0 0.00 0.00 0.00 87 1020.4
20190119075538 29 14 1.0 4.0 0.00 0.00 0.00 88 1020.4
20190119074517 28 23 2.0 7.0 0.00 0.00 0.00 88 1020.3
20190119073523 28 16 1.0 4.0 0.00 0.00 0.00 88 1020.3
20190119072529 28 9 0.0 2.0 0.00 0.00 0.00 89 1020.1
20190119071535 28 10 3.0 7.0 0.00 0.00 0.00 88 1020.0
20190119070541 28 17 2.0 4.0 0.00 0.00 0.00 89 1020.1
20190119065520 28 18 2.0 4.0 0.00 0.00 0.00 89 1019.9
20190119064526 28 15 2.0 4.0 0.00 0.00 0.00 89 1020.1
20190119063532 27 14 2.0 4.0 0.00 0.00 0.00 90 1020.1
20190119062538 27 0 2.0 4.0 0.00 0.00 0.00 90 1020.1
20190119061516 27 1 2.0 4.0 0.00 0.00 0.00 91 1020.1
20190119060523 27 351 0.0 2.0 0.00 0.00 0.00 91 1020.0
20190119055529 26 358 0.0 2.0 0.00 0.00 0.00 91 1020.1
20190119054535 26 0.0 0.0 0.00 0.00 0.00 91 1020.4
20190119053541 25 319 0.0 2.0 0.00 0.00 0.00 91 1020.3
20190119052520 25 303 0.0 2.0 0.00 0.00 0.00 91 1020.2
20190119051526 24 327 0.0 2.0 0.00 0.00 0.00 91 1020.2
20190119050532 24 0.0 0.0 0.00 0.00 0.00 91 1020.4
20190119045538 25 0.0 0.0 0.00 0.00 0.00 91 1020.4
20190119044517 25 0.0 0.0 0.00 0.00 0.00 91 1020.4
20190119043523 25 0.0 0.0 0.00 0.00 0.00 91 1020.1
20190119042528 25 0.0 0.0 0.00 0.00 0.00 91 1020.1